User: anonymous   Login
Location: Unspecified
(0.0000°N, 0.0000°E)
Time: 07:16:23
(UTC+00:00)
Language:

LIBERTAD 1 - Orbit

View from above orbital plane
View from above orbital plane
View from above satellite
View from above satellite

Ground track
Ground track

The orbit data is extracted from the following two-line orbital elements,

1 31128U 07012M   17178.80733603 +.00000112 +00000-0 +34422-4 0  9992
2 31128 098.0824 127.0310 0096942 168.6382 191.7036 14.55854786540971
Epoch (UTC): 27 June 2017 19:22:33
Eccentricity: 0.0096942
inclination: 98.0824°
perigee height: 638 km
apogee height: 775 km
right ascension of ascending node: 127.0310°
argument of perigee: 168.6382°
revolutions per day: 14.55854786
mean anomaly at epoch: 191.7036°
orbit number at epoch: 54097

The dashed part of the orbit path shows where the satellite is in the earth's shadow,  

DLR